Regional Weather Roundup
Issued by NWS Albany, NY

Home | Current Version | Previous Version | Text Only | Print | Product List | Glossary On
Versions: 1 2 3 4 5 6 7 8 9 10 11 12 13 14 15 16 17 18 19 20 21 22 23 24 25 26 27 28
000
ASUS41 KALY 280710
RWRALY

NEW YORK STATE HOURLY WEATHER ROUNDUP
NATIONAL WEATHER SERVICE ALBANY NY
300 AM EDT THU JUL 28 2016

NOTE: "FAIR" INDICATES FEW OR NO CLOUDS BELOW 12,000 FEET WITH NO
SIGNIFICANT WEATHER AND/OR NO OBSTRUCTIONS TO VISIBILITY.

NYZ032-033-038>043-046>054-057>066-NYZ062>081-082-084-280800-
EAST


CITY           SKY/WX    TMP DP  RH WIND       PRES   REMARKS
ALBANY         PTCLDY    68  61  78 CALM      29.91S
GLENS FALLS    PTCLDY    67  61  81 NW3       29.90R
POUGHKEEPSIE   CLEAR     67  62  84 CALM      29.91S
NEWBURGH       CLEAR     68  63  83 CALM      29.93S
MONTGOMERY     CLEAR     64  62  93 CALM      29.92S
WHITE PLAINS   CLEAR     71  68  90 CALM      29.91F
ISLIP          MOCLDY    74  73  97 CALM      29.91S
NEW YORK CITY  PTCLDY    79  73  82 SW3       29.90S
CENTRAL PARK   CLEAR     80  70  71 VRB5      29.93S
$$

NYZ005>009-017-018-044>046-055-056-280800-
CENTRAL


CITY           SKY/WX    TMP DP  RH WIND       PRES   REMARKS
FULTON         CLEAR     71  67  87 CALM      29.90F
SYRACUSE       PTCLDY    71  66  84 CALM      29.90F
ROME           PTCLDY    66  64  93 CALM      29.92F
ELMIRA         CLEAR     62  58  86 CALM      29.95S
BINGHAMTON     CLEAR     69  57  65 CALM      29.97F
MONTICELLO     CLEAR     61  59  94 CALM      29.99S
$$

NYZ026>034-041>043-087-280800-
NORTH


CITY           SKY/WX    TMP DP  RH WIND       PRES   REMARKS
WATERTOWN      PTCLDY    70  66  87 S7        29.87F
FORT DRUM      NOT AVBL
MASSENA        CLOUDY    68  63  84 SW3       29.87S
SARANAC LAKE   MOCLDY    60  56  86 CALM      29.92F
PLATTSBURGH    MOCLDY    72  60  66 CALM      29.85F
$$

NYZ001>004-010>016-019>021-085-280800-
WEST


CITY           SKY/WX    TMP DP  RH WIND       PRES   REMARKS
NIAGARA FALLS  PTCLDY    72  65  78 N3        29.90F
BUFFALO        PTCLDY    73  63  70 S3        29.91F
DUNKIRK        CLEAR     65  60  84 CALM      29.93F
JAMESTOWN      CLEAR     63  59  88 S5        29.97F
WELLSVILLE     CLEAR     64  59  83 CALM      30.02F
ROCHESTER      MOCLDY    70  63  78 CALM      29.92S
PENN YAN       CLEAR     70  64  81 S3        29.95S
$$

             KEY
       WCI = WIND CHILL INDEX
       VSB = VISIBILITY
       HX  = HEAT INDEX
$$




USA.gov is the U.S. government's official web portal to all federal, state and local government web resources and services.